Flag for Netherlands Weather past 2 weeks in Almere, Netherlands

Now
57 °F

Clear.


Feels Like: 56 °F
Forecast: 59 / 73 °F
Wind: 6 mph from Northwest

Location: Amsterdam Schiphol Airport

Current Time: Jul 30, 2014 at 5:02:34 AM

Latest Report: Jul 30, 2014 at 4:25 AM


Visibility: 10 mi

Pressure: 29.89 "Hg

Humidity: 100%

Dew point: 57 °F

Location of AlmereLocation

Historic Weather in Almere — Graph

°F

Almere temperature yesterday

Maximum temperature yesterday: 77 °F (at 2:55 PM)
Minimum temperature yesterday: 63 °F (at 11:55 PM)
Average temperature yesterday: 70 °F

Past Weeks' High & Low Weather Summary

 TemperatureHumidityPressure
High93 °F (Jul 19, 3:55 PM)100% (Jul 16, 4:25 AM)30.18 "Hg (Jul 16, 4:25 AM)
Low57 °F (Jul 15, 4:55 AM)30% (Jul 19, 3:55 PM)29.77 "Hg (Jul 19, 5:25 PM)
Average70 °F78%29.98 "Hg
* Reported Jul 15 3:25 AM — Jul 30 3:55 AM, Almere, Weather by CustomWeather, © 2014

Note: Actual official high and low records may vary slightly from our data, if they occured in-between our weather recording intervals... More about our weather records

Advertising

Almere weather history for previous 24 hours

 ConditionsComfort  
Time TempWeatherWind HumidityBarometerVisibility
3:55 AM
Jul 30
59 °FClear.3 mph94%29.89 "Hg10 mi
3:25 AM59 °FClear.5 mph94%29.89 "Hg10 mi
2:55 AM59 °FClear.6 mph94%29.89 "Hg10 mi
2:25 AM61 °FPassing clouds.5 mph88%29.89 "HgN/A
1:55 AM61 °FClear.5 mph94%29.89 "Hg10 mi
1:25 AM63 °FClear.7 mph88%29.89 "Hg10 mi
12:55 AM63 °FClear.7 mph88%29.89 "Hg10 mi
12:25 AM61 °FClear.7 mph94%29.92 "Hg10 mi
11:55 PM
Jul 29
63 °FPassing clouds.7 mph88%29.92 "HgN/A
11:25 PM64 °FPassing clouds.7 mph88%29.92 "HgN/A
10:55 PM64 °FPassing clouds.8 mph88%29.89 "HgN/A
10:25 PM66 °FPassing clouds.10 mph83%29.89 "HgN/A
9:55 PM66 °FScattered clouds.12 mph83%29.89 "HgN/A
9:25 PM68 °FPassing clouds.8 mph78%29.89 "HgN/A
8:55 PM68 °FPassing clouds.8 mph83%29.89 "HgN/A
8:25 PM70 °FPassing clouds.13 mph78%29.89 "HgN/A
7:55 PM70 °FPassing clouds.14 mph78%29.86 "HgN/A
7:25 PM70 °FPassing clouds.16 mph78%29.86 "HgN/A
6:55 PM72 °FPassing clouds.15 mph78%29.86 "HgN/A
6:25 PM72 °FScattered clouds.13 mph78%29.86 "HgN/A
5:55 PM73 °FPassing clouds.14 mph78%29.86 "HgN/A
5:25 PM73 °FPassing clouds.12 mph74%29.86 "HgN/A
4:55 PM73 °FPassing clouds.15 mph78%29.86 "HgN/A
4:25 PM73 °FPassing clouds.15 mph78%29.86 "HgN/A
3:55 PM75 °FPassing clouds.18 mph78%29.86 "HgN/A
3:25 PM75 °FPassing clouds.16 mph78%29.89 "HgN/A
2:55 PM77 °FPassing clouds.13 mph74%29.89 "HgN/A
2:25 PM75 °FPassing clouds.14 mph78%29.89 "HgN/A
1:55 PM75 °FPassing clouds.13 mph74%29.89 "HgN/A
1:25 PM75 °FPassing clouds.12 mph78%29.89 "HgN/A
12:55 PM75 °FPassing clouds.10 mph78%29.89 "HgN/A
12:25 PM73 °FPassing clouds.10 mph83%29.89 "HgN/A
11:55 AM73 °FPassing clouds.9 mph83%29.89 "HgN/A
11:25 AM73 °FPassing clouds.9 mph83%29.89 "HgN/A
10:55 AM72 °FPassing clouds.8 mph83%29.89 "HgN/A
10:25 AM72 °FPassing clouds.9 mph83%29.89 "HgN/A
9:55 AM70 °FPassing clouds.13 mph88%29.89 "HgN/A
9:25 AM70 °FScattered showers. Passing clouds.12 mph88%29.89 "HgN/A
8:55 AM68 °FScattered showers. Passing clouds.12 mph94%29.89 "HgN/A
8:25 AM68 °FPassing clouds.12 mph94%29.89 "HgN/A
7:55 AM66 °FPassing clouds.13 mph100%29.89 "HgN/A
7:25 AM68 °FSprinkles. Passing clouds.12 mph94%29.89 "HgN/A
6:55 AM68 °FPassing clouds.10 mph94%29.89 "HgN/A
6:25 AM66 °FPassing clouds.9 mph100%29.89 "HgN/A
5:55 AM66 °FPartly cloudy.10 mph100%29.89 "HgN/A
5:25 AM68 °FPassing clouds.9 mph94%29.89 "HgN/A
Weather by CustomWeather, © 2014

See weather overviewHow to use our weather pages